| time (UTC) | temp F | wind direction | speed MPH | gust MPH | rain 1hr in | rain 24hr in | rain mn in | humidity % | barometer mb |
| 20260510230528 | 80 | 0 | 0.0 | 3.0 | 0.00 | 0.00 | 0.00 | 50 | 1017.8 |
| 20260510230046 | 81 | 0 | 0.0 | 3.0 | 0.00 | 0.00 | 0.00 | 51 | 1017.8 |
| 20260510225528 | 81 | 0 | 0.0 | 3.0 | 0.00 | 0.00 | 0.00 | 46 | 1017.8 |
| 20260510225028 | 82 | 0 | 0.0 | 3.0 | 0.00 | 0.00 | 0.00 | 45 | 1017.7 |
| 20260510224541 | 81 | 262 | 1.0 | 3.0 | 0.00 | 0.00 | 0.00 | 45 | 1017.8 |
| 20260510224027 | 81 | 0 | 0.0 | 1.0 | 0.00 | 0.00 | 0.00 | 50 | 1017.8 |
| 20260510223532 | 81 | 0 | 0.0 | 4.0 | 0.00 | 0.00 | 0.00 | 54 | 1017.8 |
| 20260510223046 | 81 | 0 | 0.0 | 4.0 | 0.00 | 0.00 | 0.00 | 50 | 1017.8 |
| 20260510222529 | 81 | 0 | 0.0 | 4.0 | 0.00 | 0.00 | 0.00 | 45 | 1017.7 |
| 20260510222025 | 81 | 273 | 1.0 | 3.0 | 0.00 | 0.00 | 0.00 | 44 | 1017.7 |
| 20260510221553 | 82 | 0 | 0.0 | 3.0 | 0.00 | 0.00 | 0.00 | 49 | 1017.7 |
| 20260510221026 | 82 | 255 | 0.0 | 4.0 | 0.00 | 0.00 | 0.00 | 45 | 1017.7 |
| 20260510220528 | 82 | 0 | 1.0 | 4.0 | 0.00 | 0.00 | 0.00 | 45 | 1017.8 |
| 20260510220044 | 83 | 243 | 0.0 | 3.0 | 0.00 | 0.00 | 0.00 | 48 | 1017.8 |
| 20260510215528 | 83 | 0 | 0.0 | 3.0 | 0.00 | 0.00 | 0.00 | 45 | 1017.8 |
| 20260510215028 | 82 | 285 | 0.0 | 2.0 | 0.00 | 0.00 | 0.00 | 46 | 1017.8 |
| 20260510214548 | 82 | 0 | 0.0 | 2.0 | 0.00 | 0.00 | 0.00 | 47 | 1017.8 |
| 20260510214028 | 81 | 303 | 0.0 | 2.0 | 0.00 | 0.00 | 0.00 | 49 | 1017.8 |
| 20260510213528 | 81 | 279 | 0.0 | 2.0 | 0.00 | 0.00 | 0.00 | 50 | 1017.8 |
| 20260510213045 | 82 | 287 | 0.0 | 2.0 | 0.00 | 0.00 | 0.00 | 49 | 1017.9 |
| 20260510212528 | 82 | 0 | 0.0 | 3.0 | 0.00 | 0.00 | 0.00 | 46 | 1017.9 |
| 20260510212028 | 83 | 0 | 0.0 | 4.0 | 0.00 | 0.00 | 0.00 | 48 | 1018.0 |
| 20260510211548 | 83 | 274 | 1.0 | 4.0 | 0.00 | 0.00 | 0.00 | 40 | 1018.0 |
| 20260510211028 | 84 | 312 | 1.0 | 4.0 | 0.00 | 0.00 | 0.00 | 44 | 1017.9 |
| 20260510210527 | 84 | 0 | 0.0 | 3.0 | 0.00 | 0.00 | 0.00 | 41 | 1018.0 |
| 20260510210045 | 84 | 263 | 0.0 | 4.0 | 0.00 | 0.00 | 0.00 | 44 | 1018.0 |
| 20260510205530 | 84 | 266 | 1.0 | 4.0 | 0.00 | 0.00 | 0.00 | 44 | 1018.1 |
| 20260510205028 | 84 | 304 | 1.0 | 3.0 | 0.00 | 0.00 | 0.00 | 39 | 1018.0 |
| 20260510204544 | 84 | 250 | 0.0 | 4.0 | 0.00 | 0.00 | 0.00 | 45 | 1018.1 |
| 20260510204027 | 83 | 248 | 0.0 | 4.0 | 0.00 | 0.00 | 0.00 | 40 | 1018.1 |
| 20260510203527 | 82 | 0 | 1.0 | 3.0 | 0.00 | 0.00 | 0.00 | 39 | 1018.1 |
| 20260510203041 | 82 | 17 | 0.0 | 3.0 | 0.00 | 0.00 | 0.00 | 39 | 1018.1 |
| 20260510202528 | 82 | 323 | 1.0 | 3.0 | 0.00 | 0.00 | 0.00 | 41 | 1018.2 |
| 20260510202029 | 81 | 246 | 0.0 | 3.0 | 0.00 | 0.00 | 0.00 | 43 | 1018.2 |
| 20260510201541 | 81 | 0 | 0.0 | 3.0 | 0.00 | 0.00 | 0.00 | 47 | 1018.2 |
| 20260510201028 | 81 | 10 | 0.0 | 3.0 | 0.00 | 0.00 | 0.00 | 45 | 1018.2 |
| 20260510200532 | 81 | 10 | 1.0 | 3.0 | 0.00 | 0.00 | 0.00 | 42 | 1018.2 |
| 20260510200111 | 81 | 64 | 1.0 | 3.0 | 0.00 | 0.00 | 0.00 | 48 | 1018.2 |
| 20260510195530 | 81 | 93 | 0.0 | 2.0 | 0.00 | 0.00 | 0.00 | 45 | 1018.3 |
| 20260510195024 | 81 | 0 | 0.0 | 2.0 | 0.00 | 0.00 | 0.00 | 49 | 1018.4 |
| 20260510194554 | 81 | 0 | 0.0 | 2.0 | 0.00 | 0.00 | 0.00 | 45 | 1018.3 |
| 20260510194030 | 81 | 0 | 0.0 | 4.0 | 0.00 | 0.00 | 0.00 | 42 | 1018.4 |
| 20260510193528 | 82 | 0 | 0.0 | 4.0 | 0.00 | 0.00 | 0.00 | 43 | 1018.4 |
| 20260510193051 | 82 | 0 | 1.0 | 4.0 | 0.00 | 0.00 | 0.00 | 41 | 1018.6 |
| 20260510192527 | 83 | 230 | 1.0 | 6.0 | 0.00 | 0.00 | 0.00 | 41 | 1018.5 |
| 20260510192027 | 82 | 115 | 1.0 | 6.0 | 0.00 | 0.00 | 0.00 | 45 | 1018.4 |
| 20260510191553 | 82 | 0 | 1.0 | 5.0 | 0.00 | 0.00 | 0.00 | 41 | 1018.4 |
| 20260510191028 | 82 | 5 | 1.0 | 6.0 | 0.00 | 0.00 | 0.00 | 42 | 1018.4 |
| 20260510190527 | 82 | 254 | 2.0 | 6.0 | 0.00 | 0.00 | 0.00 | 42 | 1018.4 |
| 20260510190043 | 82 | 30 | 1.0 | 6.0 | 0.00 | 0.00 | 0.00 | 45 | 1018.5 |
| 20260510185528 | 82 | 219 | 2.0 | 7.0 | 0.00 | 0.00 | 0.00 | 43 | 1018.5 |
| 20260510185028 | 82 | 294 | 1.0 | 7.0 | 0.00 | 0.00 | 0.00 | 44 | 1018.4 |
| 20260510184536 | 81 | 178 | 3.0 | 7.0 | 0.00 | 0.00 | 0.00 | 44 | 1018.6 |
| 20260510184028 | 81 | 80 | 1.0 | 4.0 | 0.00 | 0.00 | 0.00 | 47 | 1018.6 |
| 20260510183525 | 81 | 248 | 2.0 | 8.0 | 0.00 | 0.00 | 0.00 | 44 | 1018.6 |
| 20260510183045 | 80 | 257 | 1.0 | 10.0 | 0.00 | 0.00 | 0.00 | 45 | 1018.7 |
| 20260510182531 | 80 | 275 | 3.0 | 10.0 | 0.00 | 0.00 | 0.00 | 44 | 1018.8 |
| 20260510182030 | 80 | 230 | 2.0 | 8.0 | 0.00 | 0.00 | 0.00 | 42 | 1018.8 |
| 20260510181545 | 80 | 213 | 3.0 | 8.0 | 0.00 | 0.00 | 0.00 | 43 | 1019.0 |
| 20260510181032 | 80 | 204 | 3.0 | 7.0 | 0.00 | 0.00 | 0.00 | 46 | 1019.0 |
| 20260510180528 | 80 | 320 | 2.0 | 7.0 | 0.00 | 0.00 | 0.00 | 45 | 1019.2 |
| 20260510180043 | 80 | 299 | 2.0 | 6.0 | 0.00 | 0.00 | 0.00 | 43 | 1019.3 |
| 20260510175527 | 80 | 0 | 2.0 | 8.0 | 0.00 | 0.00 | 0.00 | 49 | 1019.2 |
| 20260510175027 | 80 | 254 | 3.0 | 8.0 | 0.00 | 0.00 | 0.00 | 44 | 1019.3 |
| 20260510174544 | 80 | 28 | 2.0 | 5.0 | 0.00 | 0.00 | 0.00 | 48 | 1019.3 |
| 20260510174027 | 80 | 326 | 2.0 | 5.0 | 0.00 | 0.00 | 0.00 | 45 | 1019.4 |
| 20260510173527 | 80 | 254 | 1.0 | 5.0 | 0.00 | 0.00 | 0.00 | 48 | 1019.3 |
| 20260510173044 | 80 | 117 | 1.0 | 4.0 | 0.00 | 0.00 | 0.00 | 43 | 1019.3 |
| 20260510172528 | 80 | 214 | 1.0 | 6.0 | 0.00 | 0.00 | 0.00 | 47 | 1019.3 |
| 20260510172028 | 80 | 139 | 0.0 | 7.0 | 0.00 | 0.00 | 0.00 | 45 | 1019.2 |
| 20260510171552 | 80 | 283 | 2.0 | 7.0 | 0.00 | 0.00 | 0.00 | 45 | 1019.3 |
| 20260510171027 | 80 | 342 | 1.0 | 4.0 | 0.00 | 0.00 | 0.00 | 47 | 1019.2 |
| 20260510170529 | 80 | 13 | 2.0 | 7.0 | 0.00 | 0.00 | 0.00 | 46 | 1019.4 |
| 20260510170045 | 79 | 162 | 2.0 | 7.0 | 0.00 | 0.00 | 0.00 | 48 | 1019.4 |
| 20260510165527 | 79 | 215 | 2.0 | 7.0 | 0.00 | 0.00 | 0.00 | 46 | 1019.4 |
| 20260510165027 | 79 | 210 | 2.0 | 6.0 | 0.00 | 0.00 | 0.00 | 47 | 1019.3 |
| 20260510164546 | 79 | 265 | 2.0 | 7.0 | 0.00 | 0.00 | 0.00 | 51 | 1019.2 |
| 20260510164030 | 78 | 246 | 2.0 | 7.0 | 0.00 | 0.00 | 0.00 | 51 | 1019.3 |
| 20260510163531 | 78 | 333 | 1.0 | 6.0 | 0.00 | 0.00 | 0.00 | 53 | 1019.2 |
| 20260510163040 | 78 | 208 | 3.0 | 6.0 | 0.00 | 0.00 | 0.00 | 54 | 1019.2 |
| 20260510162527 | 78 | 330 | 2.0 | 6.0 | 0.00 | 0.00 | 0.00 | 51 | 1019.2 |
| 20260510162027 | 77 | 270 | 1.0 | 5.0 | 0.00 | 0.00 | 0.00 | 54 | 1019.2 |
| 20260510161545 | 77 | 207 | 2.0 | 5.0 | 0.00 | 0.00 | 0.00 | 51 | 1019.1 |
| 20260510161027 | 77 | 5 | 1.0 | 6.0 | 0.00 | 0.00 | 0.00 | 58 | 1019.2 |
| 20260510160530 | 76 | 155 | 2.0 | 6.0 | 0.00 | 0.00 | 0.00 | 57 | 1019.2 |
| 20260510160047 | 76 | 244 | 2.0 | 8.0 | 0.00 | 0.00 | 0.00 | 61 | 1019.2 |
| 20260510155527 | 76 | 256 | 4.0 | 8.0 | 0.00 | 0.00 | 0.00 | 61 | 1019.3 |
| 20260510155027 | 76 | 269 | 1.0 | 4.0 | 0.00 | 0.00 | 0.00 | 63 | 1019.2 |
| 20260510154545 | 75 | 17 | 2.0 | 6.0 | 0.00 | 0.00 | 0.00 | 64 | 1019.2 |
| 20260510154028 | 75 | 190 | 2.0 | 6.0 | 0.00 | 0.00 | 0.00 | 63 | 1019.3 |
| 20260510153527 | 75 | 302 | 2.0 | 7.0 | 0.00 | 0.00 | 0.00 | 67 | 1019.3 |
| 20260510153043 | 74 | 215 | 2.0 | 8.0 | 0.00 | 0.00 | 0.00 | 70 | 1019.4 |
| 20260510152526 | 74 | 298 | 1.0 | 8.0 | 0.00 | 0.00 | 0.00 | 72 | 1019.3 |
| 20260510152026 | 73 | 226 | 2.0 | 8.0 | 0.00 | 0.00 | 0.00 | 71 | 1019.4 |
| 20260510151547 | 73 | 295 | 0.0 | 7.0 | 0.00 | 0.00 | 0.00 | 77 | 1019.4 |
| 20260510151027 | 72 | 232 | 3.0 | 6.0 | 0.00 | 0.00 | 0.00 | 77 | 1019.4 |
| 20260510150528 | 72 | 350 | 1.0 | 8.0 | 0.00 | 0.00 | 0.00 | 78 | 1019.5 |
| 20260510150047 | 72 | 333 | 0.0 | 8.0 | 0.00 | 0.00 | 0.00 | 81 | 1019.5 |
| 20260510145530 | 71 | 12 | 1.0 | 5.0 | 0.00 | 0.00 | 0.00 | 81 | 1019.3 |
| 20260510145031 | 71 | 344 | 2.0 | 8.0 | 0.00 | 0.00 | 0.00 | 82 | 1019.4 |
| 20260510144544 | 70 | 38 | 1.0 | 8.0 | 0.00 | 0.00 | 0.00 | 83 | 1019.5 |
| 20260510144028 | 70 | 279 | 3.0 | 8.0 | 0.00 | 0.00 | 0.00 | 85 | 1019.5 |
| 20260510143527 | 69 | 242 | 2.0 | 5.0 | 0.00 | 0.00 | 0.00 | 86 | 1019.5 |
| 20260510143044 | 69 | 341 | 2.0 | 6.0 | 0.00 | 0.00 | 0.00 | 86 | 1019.5 |
| 20260510142527 | 68 | 336 | 1.0 | 6.0 | 0.00 | 0.00 | 0.00 | 89 | 1019.5 |
| 20260510142028 | 68 | 0 | 2.0 | 6.0 | 0.00 | 0.00 | 0.00 | 89 | 1019.4 |
| 20260510141540 | 67 | 224 | 2.0 | 5.0 | 0.00 | 0.00 | 0.00 | 89 | 1019.4 |
| 20260510141027 | 67 | 283 | 2.0 | 4.0 | 0.00 | 0.00 | 0.00 | 89 | 1019.4 |
| 20260510140528 | 67 | 152 | 1.0 | 4.0 | 0.00 | 0.00 | 0.00 | 91 | 1019.4 |
| 20260510140047 | 66 | 346 | 1.0 | 5.0 | 0.00 | 0.00 | 0.00 | 93 | 1019.4 |
| 20260510135527 | 66 | 12 | 1.0 | 5.0 | 0.00 | 0.00 | 0.00 | 92 | 1019.3 |
| 20260510135028 | 66 | 16 | 2.0 | 5.0 | 0.00 | 0.00 | 0.00 | 94 | 1019.2 |
| 20260510134551 | 65 | 147 | 0.0 | 5.0 | 0.00 | 0.00 | 0.00 | 94 | 1019.3 |
| 20260510134027 | 65 | 198 | 2.0 | 5.0 | 0.00 | 0.00 | 0.00 | 96 | 1019.2 |
| 20260510133527 | 64 | 225 | 1.0 | 4.0 | 0.00 | 0.00 | 0.00 | 97 | 1019.3 |
| 20260510133101 | 64 | 213 | 1.0 | 5.0 | 0.00 | 0.00 | 0.00 | 98 | 1019.3 |
| 20260510132527 | 63 | 284 | 1.0 | 5.0 | 0.00 | 0.00 | 0.00 | 98 | 1019.3 |
| 20260510132028 | 63 | 293 | 1.0 | 9.0 | 0.00 | 0.00 | 0.00 | 98 | 1019.3 |
| 20260510131554 | 63 | 0 | 1.0 | 9.0 | 0.00 | 0.00 | 0.00 | 98 | 1019.2 |
| 20260510131027 | 62 | 237 | 2.0 | 9.0 | 0.00 | 0.00 | 0.00 | 98 | 1019.2 |
| 20260510130527 | 62 | 267 | 1.0 | 6.0 | 0.00 | 0.00 | 0.00 | 98 | 1019.1 |
| 20260510130043 | 62 | 0 | 1.0 | 5.0 | 0.00 | 0.00 | 0.00 | 98 | 1019.1 |
| 20260510125528 | 61 | 0 | 0.0 | 2.0 | 0.00 | 0.00 | 0.00 | 98 | 1019.0 |
| 20260510125028 | 60 | 0 | 0.0 | 2.0 | 0.00 | 0.00 | 0.00 | 98 | 1018.9 |
| 20260510124541 | 59 | 277 | 1.0 | 2.0 | 0.00 | 0.00 | 0.00 | 98 | 1018.9 |
| 20260510124028 | 58 | 277 | 0.0 | 1.0 | 0.00 | 0.00 | 0.00 | 98 | 1018.9 |
| 20260510123530 | 57 | 0 | 0.0 | 0.0 | 0.00 | 0.00 | 0.00 | 98 | 1018.8 |
| 20260510123057 | 56 | 0 | 0.0 | 0.0 | 0.00 | 0.00 | 0.00 | 98 | 1018.7 |
| 20260510122529 | 56 | 0 | 0.0 | 0.0 | 0.00 | 0.00 | 0.00 | 98 | 1018.7 |
| 20260510122027 | 55 | 0 | 0.0 | 0.0 | 0.00 | 0.00 | 0.00 | 97 | 1018.7 |
| 20260510121545 | 55 | 0 | 0.0 | 0.0 | 0.00 | 0.00 | 0.00 | 97 | 1018.6 |
| 20260510121029 | 55 | 0 | 0.0 | 0.0 | 0.00 | 0.00 | 0.00 | 97 | 1018.7 |
| 20260510120527 | 54 | 0 | 0.0 | 0.0 | 0.00 | 0.00 | 0.00 | 97 | 1018.6 |
| 20260510120046 | 54 | 0 | 0.0 | 0.0 | 0.00 | 0.00 | 0.00 | 97 | 1018.5 |
| 20260510115529 | 54 | 0 | 0.0 | 0.0 | 0.00 | 0.00 | 0.00 | 97 | 1018.4 |
| 20260510115027 | 54 | 0 | 0.0 | 0.0 | 0.00 | 0.00 | 0.00 | 97 | 1018.4 |
| 20260510114539 | 53 | 0 | 0.0 | 0.0 | 0.00 | 0.00 | 0.00 | 97 | 1018.3 |
| 20260510114030 | 53 | 0 | 0.0 | 0.0 | 0.00 | 0.00 | 0.00 | 97 | 1018.2 |
| 20260510113528 | 53 | 0 | 0.0 | 0.0 | 0.00 | 0.00 | 0.00 | 97 | 1018.1 |
| 20260510113047 | 53 | 0 | 0.0 | 0.0 | 0.00 | 0.00 | 0.00 | 97 | 1018.1 |
| 20260510112527 | 53 | 0 | 0.0 | 0.0 | 0.00 | 0.00 | 0.00 | 97 | 1018.0 |
| 20260510112027 | 53 | 0 | 0.0 | 0.0 | 0.00 | 0.00 | 0.00 | 96 | 1018.0 |
| 20260510111545 | 53 | 0 | 0.0 | 0.0 | 0.00 | 0.00 | 0.00 | 97 | 1018.0 |
| 20260510111025 | 53 | 0 | 0.0 | 0.0 | 0.00 | 0.00 | 0.00 | 96 | 1017.8 |
| 20260510110527 | 53 | 0 | 0.0 | 0.0 | 0.00 | 0.00 | 0.00 | 96 | 1017.8 |
| 20260510110046 | 53 | 0 | 0.0 | 0.0 | 0.00 | 0.00 | 0.00 | 96 | 1017.7 |
| 20260510105527 | 53 | 0 | 0.0 | 0.0 | 0.00 | 0.00 | 0.00 | 96 | 1017.8 |
| 20260510105108 | 53 | 0 | 0.0 | 0.0 | 0.00 | 0.00 | 0.00 | 96 | 1017.6 |
| 20260510104543 | 53 | 0 | 0.0 | 0.0 | 0.00 | 0.00 | 0.00 | 96 | 1017.5 |
| 20260510104026 | 53 | 0 | 0.0 | 0.0 | 0.00 | 0.00 | 0.00 | 96 | 1017.5 |
| 20260510103527 | 53 | 0 | 0.0 | 0.0 | 0.00 | 0.00 | 0.00 | 96 | 1017.6 |
| 20260510103044 | 53 | 0 | 0.0 | 0.0 | 0.00 | 0.00 | 0.00 | 96 | 1017.6 |
| 20260510102527 | 53 | 0 | 0.0 | 0.0 | 0.00 | 0.00 | 0.00 | 96 | 1017.6 |
| 20260510102029 | 53 | 0 | 0.0 | 0.0 | 0.00 | 0.00 | 0.00 | 96 | 1017.5 |
| 20260510101540 | 53 | 0 | 0.0 | 0.0 | 0.00 | 0.00 | 0.00 | 96 | 1017.4 |
| 20260510101027 | 53 | 0 | 0.0 | 1.0 | 0.00 | 0.00 | 0.00 | 96 | 1017.3 |
| 20260510100529 | 53 | 0 | 0.0 | 1.0 | 0.00 | 0.00 | 0.00 | 96 | 1017.3 |
| 20260510100044 | 53 | 277 | 0.0 | 1.0 | 0.00 | 0.00 | 0.00 | 96 | 1017.2 |
| 20260510095527 | 53 | 0 | 0.0 | 0.0 | 0.00 | 0.00 | 0.00 | 96 | 1017.0 |
| 20260510095026 | 53 | 0 | 0.0 | 0.0 | 0.00 | 0.00 | 0.00 | 96 | 1016.8 |
| 20260510094546 | 53 | 0 | 0.0 | 0.0 | 0.00 | 0.00 | 0.00 | 96 | 1017.0 |
| 20260510094026 | 53 | 0 | 0.0 | 0.0 | 0.00 | 0.00 | 0.00 | 95 | 1017.0 |
| 20260510093526 | 54 | 0 | 0.0 | 0.0 | 0.00 | 0.00 | 0.00 | 96 | 1016.9 |
| 20260510093044 | 54 | 0 | 0.0 | 0.0 | 0.00 | 0.00 | 0.00 | 96 | 1016.8 |
| 20260510092530 | 54 | 0 | 0.0 | 0.0 | 0.00 | 0.00 | 0.00 | 96 | 1016.6 |
| 20260510092032 | 54 | 0 | 0.0 | 0.0 | 0.00 | 0.00 | 0.00 | 96 | 1016.7 |
| 20260510091541 | 54 | 0 | 0.0 | 0.0 | 0.00 | 0.00 | 0.00 | 96 | 1016.7 |
| 20260510091033 | 54 | 0 | 0.0 | 0.0 | 0.00 | 0.00 | 0.00 | 96 | 1016.6 |
| 20260510090527 | 54 | 0 | 0.0 | 0.0 | 0.00 | 0.00 | 0.00 | 96 | 1016.7 |
| 20260510090040 | 54 | 0 | 0.0 | 0.0 | 0.00 | 0.00 | 0.00 | 96 | 1016.7 |
| 20260510085526 | 53 | 0 | 0.0 | 0.0 | 0.00 | 0.00 | 0.00 | 96 | 1016.7 |
| 20260510085027 | 53 | 0 | 0.0 | 0.0 | 0.00 | 0.00 | 0.00 | 95 | 1016.7 |
| 20260510084543 | 53 | 0 | 0.0 | 0.0 | 0.00 | 0.00 | 0.00 | 95 | 1016.6 |
| 20260510084027 | 53 | 0 | 0.0 | 0.0 | 0.00 | 0.00 | 0.00 | 96 | 1016.5 |
| 20260510083529 | 54 | 0 | 0.0 | 0.0 | 0.00 | 0.00 | 0.00 | 96 | 1016.7 |
| 20260510083045 | 53 | 0 | 0.0 | 0.0 | 0.00 | 0.00 | 0.00 | 95 | 1016.6 |
| 20260510082527 | 53 | 0 | 0.0 | 0.0 | 0.00 | 0.00 | 0.00 | 95 | 1016.7 |
| 20260510082027 | 54 | 0 | 0.0 | 0.0 | 0.00 | 0.00 | 0.00 | 95 | 1016.4 |
| 20260510081549 | 54 | 0 | 0.0 | 0.0 | 0.00 | 0.00 | 0.00 | 95 | 1016.4 |
| 20260510081026 | 54 | 0 | 0.0 | 0.0 | 0.00 | 0.00 | 0.00 | 95 | 1016.3 |
| 20260510080528 | 54 | 0 | 0.0 | 0.0 | 0.00 | 0.00 | 0.00 | 95 | 1016.2 |
| 20260510080041 | 54 | 0 | 0.0 | 0.0 | 0.00 | 0.00 | 0.00 | 95 | 1016.2 |
| 20260510075527 | 54 | 0 | 0.0 | 0.0 | 0.00 | 0.00 | 0.00 | 96 | 1016.2 |
| 20260510075027 | 54 | 0 | 0.0 | 0.0 | 0.00 | 0.00 | 0.00 | 96 | 1016.1 |
| 20260510074545 | 54 | 0 | 0.0 | 0.0 | 0.00 | 0.00 | 0.00 | 96 | 1016.1 |
| 20260510074030 | 54 | 0 | 0.0 | 0.0 | 0.00 | 0.00 | 0.00 | 95 | 1016.0 |
| 20260510073526 | 54 | 0 | 0.0 | 0.0 | 0.00 | 0.00 | 0.00 | 95 | 1016.0 |
| 20260510073103 | 54 | 0 | 0.0 | 0.0 | 0.00 | 0.00 | 0.00 | 95 | 1016.0 |
| 20260510072527 | 54 | 0 | 0.0 | 0.0 | 0.00 | 0.00 | 0.00 | 95 | 1016.1 |
| 20260510072028 | 54 | 0 | 0.0 | 0.0 | 0.00 | 0.00 | 0.00 | 95 | 1016.1 |
| 20260510071555 | 54 | 0 | 0.0 | 0.0 | 0.00 | 0.00 | 0.00 | 95 | 1016.0 |
| 20260510071026 | 54 | 0 | 0.0 | 0.0 | 0.00 | 0.00 | 0.00 | 95 | 1016.0 |
| 20260510070526 | 54 | 0 | 0.0 | 0.0 | 0.00 | 0.00 | 0.00 | 94 | 1016.0 |
| 20260510070046 | 55 | 0 | 0.0 | 0.0 | 0.00 | 0.00 | 0.00 | 94 | 1016.1 |
| 20260510065526 | 55 | 0 | 0.0 | 1.0 | 0.00 | 0.00 | 0.00 | 94 | 1016.0 |
| 20260510065028 | 55 | 0 | 0.0 | 2.0 | 0.00 | 0.00 | 0.00 | 94 | 1016.1 |
| 20260510064548 | 55 | 0 | 0.0 | 2.0 | 0.00 | 0.00 | 0.00 | 93 | 1016.0 |
| 20260510064028 | 55 | 277 | 0.0 | 2.0 | 0.00 | 0.00 | 0.00 | 93 | 1016.1 |
| 20260510063526 | 55 | 0 | 0.0 | 2.0 | 0.00 | 0.00 | 0.00 | 93 | 1016.0 |
| 20260510063043 | 55 | 277 | 0.0 | 2.0 | 0.00 | 0.00 | 0.00 | 93 | 1015.9 |
| 20260510062526 | 56 | 277 | 0.0 | 3.0 | 0.00 | 0.00 | 0.00 | 92 | 1016.0 |
| 20260510062026 | 56 | 277 | 0.0 | 3.0 | 0.00 | 0.00 | 0.00 | 94 | 1016.0 |
| 20260510061537 | 56 | 329 | 0.0 | 3.0 | 0.00 | 0.00 | 0.00 | 92 | 1016.0 |
| 20260510061029 | 56 | 292 | 1.0 | 3.0 | 0.00 | 0.00 | 0.00 | 93 | 1016.0 |
| 20260510060527 | 57 | 288 | 1.0 | 3.0 | 0.00 | 0.00 | 0.00 | 94 | 1015.9 |
| 20260510060046 | 57 | 316 | 0.0 | 8.0 | 0.00 | 0.00 | 0.00 | 94 | 1016.0 |
| 20260510055526 | 57 | 0 | 3.0 | 8.0 | 0.00 | 0.00 | 0.00 | 97 | 1016.0 |
| 20260510055028 | 56 | 0 | 1.0 | 3.0 | 0.00 | 0.00 | 0.00 | 97 | 1016.0 |
| 20260510054544 | 55 | 161 | 1.0 | 5.0 | 0.00 | 0.00 | 0.00 | 96 | 1015.9 |
| 20260510054030 | 54 | 239 | 1.0 | 5.0 | 0.00 | 0.00 | 0.00 | 97 | 1015.9 |
| 20260510053528 | 53 | 190 | 1.0 | 5.0 | 0.00 | 0.00 | 0.00 | 96 | 1016.0 |
| 20260510053042 | 52 | 0 | 0.0 | 2.0 | 0.00 | 0.00 | 0.00 | 92 | 1016.0 |
| 20260510052530 | 52 | 0 | 0.0 | 2.0 | 0.00 | 0.00 | 0.00 | 92 | 1016.1 |
| 20260510052027 | 52 | 0 | 0.0 | 0.0 | 0.00 | 0.00 | 0.00 | 91 | 1016.1 |
| 20260510051543 | 52 | 0 | 0.0 | 0.0 | 0.00 | 0.00 | 0.00 | 91 | 1016.1 |
| 20260510051027 | 52 | 0 | 0.0 | 0.0 | 0.00 | 0.00 | 0.00 | 91 | 1016.0 |
| 20260510050530 | 52 | 0 | 0.0 | 0.0 | 0.00 | 0.00 | 0.00 | 91 | 1016.1 |
| 20260510050043 | 52 | 0 | 0.0 | 0.0 | 0.00 | 0.00 | 0.00 | 91 | 1016.1 |
| 20260510045528 | 52 | 0 | 0.0 | 0.0 | 0.00 | 0.00 | 0.00 | 90 | 1016.1 |
| 20260510045030 | 53 | 0 | 0.0 | 0.0 | 0.00 | 0.00 | 0.00 | 90 | 1016.1 |
| 20260510044549 | 53 | 0 | 0.0 | 0.0 | 0.00 | 0.00 | 0.00 | 90 | 1016.1 |
| 20260510044026 | 53 | 0 | 0.0 | 0.0 | 0.00 | 0.00 | 0.00 | 90 | 1016.1 |
| 20260510043526 | 53 | 0 | 0.0 | 0.0 | 0.00 | 0.00 | 0.00 | 90 | 1016.0 |
| 20260510043048 | 53 | 0 | 0.0 | 0.0 | 0.00 | 0.00 | 0.00 | 90 | 1016.0 |
| 20260510042528 | 53 | 0 | 0.0 | 0.0 | 0.00 | 0.00 | 0.00 | 90 | 1016.1 |
| 20260510042028 | 53 | 0 | 0.0 | 0.0 | 0.00 | 0.00 | 0.00 | 89 | 1016.0 |
| 20260510041542 | 54 | 0 | 0.0 | 0.0 | 0.00 | 0.00 | 0.00 | 89 | 1016.0 |
| 20260510041028 | 54 | 0 | 0.0 | 0.0 | 0.00 | 0.00 | 0.00 | 89 | 1015.9 |
| 20260510040528 | 54 | 0 | 0.0 | 0.0 | 0.00 | 0.00 | 0.00 | 89 | 1015.9 |
| 20260510040046 | 54 | 0 | 0.0 | 0.0 | 0.00 | 0.00 | 0.00 | 89 | 1015.8 |
| 20260510035530 | 54 | 0 | 0.0 | 0.0 | 0.00 | 0.00 | 0.00 | 89 | 1015.8 |
| 20260510035029 | 54 | 0 | 0.0 | 0.0 | 0.00 | 0.00 | 0.00 | 89 | 1015.8 |
| 20260510034548 | 54 | 0 | 0.0 | 0.0 | 0.00 | 0.00 | 0.00 | 89 | 1015.8 |
| 20260510034032 | 55 | 0 | 0.0 | 0.0 | 0.00 | 0.00 | 0.00 | 89 | 1015.8 |
| 20260510033528 | 55 | 0 | 0.0 | 0.0 | 0.00 | 0.00 | 0.00 | 88 | 1015.9 |
| 20260510033046 | 55 | 0 | 0.0 | 0.0 | 0.00 | 0.00 | 0.00 | 88 | 1015.9 |
| 20260510032532 | 55 | 0 | 0.0 | 0.0 | 0.00 | 0.00 | 0.00 | 87 | 1015.9 |
| 20260510032030 | 55 | 0 | 0.0 | 0.0 | 0.00 | 0.00 | 0.00 | 88 | 1015.8 |
| 20260510031552 | 56 | 0 | 0.0 | 0.0 | 0.00 | 0.00 | 0.00 | 88 | 1015.8 |
| 20260510031028 | 56 | 0 | 0.0 | 0.0 | 0.00 | 0.00 | 0.00 | 88 | 1015.8 |
| 20260510030528 | 56 | 0 | 0.0 | 0.0 | 0.00 | 0.00 | 0.00 | 87 | 1015.7 |
| 20260510030041 | 56 | 0 | 0.0 | 0.0 | 0.00 | 0.00 | 0.00 | 87 | 1015.7 |
| 20260510025528 | 56 | 0 | 0.0 | 0.0 | 0.00 | 0.00 | 0.00 | 86 | 1015.6 |
| 20260510025027 | 56 | 0 | 0.0 | 0.0 | 0.00 | 0.00 | 0.00 | 86 | 1015.6 |
| 20260510024541 | 57 | 0 | 0.0 | 0.0 | 0.00 | 0.00 | 0.00 | 86 | 1015.5 |
| 20260510024028 | 57 | 0 | 0.0 | 0.0 | 0.00 | 0.00 | 0.00 | 85 | 1015.6 |
| 20260510023528 | 57 | 0 | 0.0 | 0.0 | 0.00 | 0.00 | 0.00 | 86 | 1015.4 |
| 20260510023043 | 57 | 0 | 0.0 | 0.0 | 0.00 | 0.00 | 0.00 | 85 | 1015.5 |
| 20260510022529 | 58 | 0 | 0.0 | 0.0 | 0.00 | 0.00 | 0.00 | 85 | 1015.4 |
| 20260510022029 | 58 | 0 | 0.0 | 0.0 | 0.00 | 0.00 | 0.00 | 84 | 1015.3 |
| 20260510021544 | 58 | 0 | 0.0 | 0.0 | 0.00 | 0.00 | 0.00 | 84 | 1015.2 |
| 20260510021028 | 58 | 0 | 0.0 | 0.0 | 0.00 | 0.00 | 0.00 | 83 | 1015.1 |
| 20260510020526 | 59 | 0 | 0.0 | 0.0 | 0.00 | 0.00 | 0.00 | 83 | 1015.0 |
| 20260510020044 | 59 | 0 | 0.0 | 0.0 | 0.00 | 0.00 | 0.00 | 82 | 1015.0 |
| 20260510015529 | 59 | 0 | 0.0 | 0.0 | 0.00 | 0.00 | 0.00 | 82 | 1014.9 |
| 20260510015031 | 60 | 0 | 0.0 | 0.0 | 0.00 | 0.00 | 0.00 | 81 | 1014.8 |
| 20260510014541 | 60 | 0 | 0.0 | 0.0 | 0.00 | 0.00 | 0.00 | 79 | 1014.7 |
| 20260510014032 | 60 | 0 | 0.0 | 0.0 | 0.00 | 0.00 | 0.00 | 79 | 1014.7 |
| 20260510013527 | 61 | 0 | 0.0 | 0.0 | 0.00 | 0.00 | 0.00 | 78 | 1014.6 |
| 20260510013040 | 61 | 0 | 0.0 | 0.0 | 0.00 | 0.00 | 0.00 | 77 | 1014.5 |
| 20260510012529 | 62 | 0 | 0.0 | 0.0 | 0.00 | 0.00 | 0.00 | 76 | 1014.5 |
| 20260510012030 | 62 | 0 | 0.0 | 0.0 | 0.00 | 0.00 | 0.00 | 75 | 1014.4 |
| 20260510011545 | 63 | 0 | 0.0 | 0.0 | 0.00 | 0.00 | 0.00 | 75 | 1014.4 |
| 20260510011029 | 63 | 0 | 0.0 | 0.0 | 0.00 | 0.00 | 0.00 | 74 | 1014.3 |
| 20260510010528 | 64 | 0 | 0.0 | 0.0 | 0.00 | 0.00 | 0.00 | 73 | 1014.2 |
| 20260510010046 | 65 | 0 | 0.0 | 0.0 | 0.00 | 0.00 | 0.00 | 72 | 1014.2 |
| 20260510005528 | 65 | 0 | 0.0 | 0.0 | 0.00 | 0.00 | 0.00 | 70 | 1014.1 |
| 20260510005030 | 66 | 0 | 0.0 | 0.0 | 0.00 | 0.00 | 0.00 | 69 | 1014.0 |
| 20260510004543 | 67 | 0 | 0.0 | 0.0 | 0.00 | 0.00 | 0.00 | 68 | 1014.0 |
| 20260510004028 | 67 | 0 | 0.0 | 0.0 | 0.00 | 0.00 | 0.00 | 67 | 1013.9 |
| 20260510003526 | 68 | 0 | 0.0 | 0.0 | 0.00 | 0.00 | 0.00 | 65 | 1013.9 |
| 20260510003047 | 69 | 0 | 0.0 | 0.0 | 0.00 | 0.00 | 0.00 | 65 | 1013.8 |
| 20260510002529 | 70 | 0 | 0.0 | 0.0 | 0.00 | 0.00 | 0.00 | 64 | 1013.8 |
| 20260510002030 | 71 | 0 | 0.0 | 0.0 | 0.00 | 0.00 | 0.00 | 65 | 1013.8 |
| 20260510001539 | 72 | 0 | 0.0 | 0.0 | 0.00 | 0.00 | 0.00 | 63 | 1013.8 |
| 20260510001026 | 73 | 0 | 0.0 | 0.0 | 0.00 | 0.00 | 0.00 | 59 | 1013.7 |
| 20260510000526 | 74 | 0 | 0.0 | 0.0 | 0.00 | 0.00 | 0.00 | 59 | 1013.6 |
| 20260510000046 | 75 | 0 | 0.0 | 1.0 | 0.00 | 0.00 | 0.00 | 57 | 1013.7 |
| 20260509235528 | 76 | 0 | 0.0 | 1.0 | 0.00 | 0.00 | 0.00 | 57 | 1013.7 |
| 20260509235028 | 77 | 0 | 0.0 | 0.0 | 0.00 | 0.00 | 0.00 | 56 | 1013.6 |
| 20260509234543 | 78 | 0 | 0.0 | 0.0 | 0.00 | 0.00 | 0.00 | 51 | 1013.5 |
| 20260509234029 | 78 | 0 | 0.0 | 2.0 | 0.00 | 0.00 | 0.00 | 51 | 1013.5 |
| 20260509233529 | 78 | 0 | 0.0 | 2.0 | 0.00 | 0.00 | 0.00 | 49 | 1013.4 |
| 20260509233050 | 78 | 0 | 0.0 | 2.0 | 0.00 | 0.00 | 0.00 | 48 | 1013.5 |
| 20260509232528 | 78 | 0 | 0.0 | 3.0 | 0.00 | 0.00 | 0.00 | 49 | 1013.4 |
| 20260509232028 | 78 | 0 | 0.0 | 3.0 | 0.00 | 0.00 | 0.00 | 50 | 1013.4 |
| 20260509231545 | 78 | 220 | 0.0 | 3.0 | 0.00 | 0.00 | 0.00 | 52 | 1013.4 |
| 20260509231028 | 78 | 0 | 0.0 | 1.0 | 0.00 | 0.00 | 0.00 | 53 | 1013.3 |